Regional Weather Roundup
Issued by NWS

Home | Current Version | Previous Version | Graphics & Text | Print | Product List | Glossary On
Versions: 1 2 3 4 5 6 7 8 9 10 11 12 13 14 15 16 17 18 19 20 21 22 23 24 25 26 27 28 29 30 31 32 33 34 35 36 37 38 39 40 41 42 43 44 45 46 47 48 49 50
000
ASUS43 KDMX 280307
RWRIA

WEATHER ROUNDUP FOR IOWA
NATIONAL WEATHER SERVICE DES MOINES IA
900 PM CST THU NOV 27 2014

NOTE: "FAIR" INDICATES FEW OR NO CLOUDS BELOW 12,000 FEET WITH NO
SIGNIFICANT WEATHER AND/OR OBSTRUCTIONS TO VISIBILITY.

* - THESE STATIONS ARE NOT NWS STATIONS...THUS NOT UNDER NWS
QUALITY CONTROL.  THEY ALSO DO NOT REPORT WEATHER SUCH
AS PRECIPITATION OR FOG.

IAZ001>003-012>014-020>022-031>034-043>046-280400-
   NORTHWEST IOWA

CITY           SKY/WX    TMP DP  RH WIND       PRES   REMARKS
CARROLL *      CLOUDY    14   7  73 SE13      30.25F WCI   0
CHEROKEE *     PTCLDY    12   7  79 SE7       30.24F WCI   2
DENISON *      MOCLDY    18   9  68 SE12G24   30.19F WCI   5
LE MARS *      PTCLDY    16   9  73 SE9       30.19F WCI   4
ORANGE CITY *  MOCLDY    12   7  79 SE10      30.17F WCI  -1
SHELDON *      CLOUDY    12   3  67 SE15      30.18F WCI  -4
SIOUX CITY     PTCLDY    20  10  65 SE12      30.20F WCI   8
SPENCER        CLOUDY    10   2  69 SE14      30.23F WCI  -6
STORM LAKE *   PTCLDY    10   3  72 SE10      30.24S WCI  -3
$$

IAZ055>058-069>071-079>083-090>094-280400-
   SOUTHWEST IOWA

CITY           SKY/WX    TMP DP  RH WIND       PRES   REMARKS
ATLANTIC *     CLOUDY    19  12  73 SE6       30.25F WCI  11
AUDUBON *      CLEAR     18   9  68 SE10      30.23F WCI   6
CLARINDA *     CLEAR     23  16  74 SE8       30.29F WCI  14
COUNCIL BLFS * CLEAR     21  16  79 SE10G18   30.20F WCI  10
CRESTON *      PTCLDY    19  12  73 SE10      30.29F WCI   8
HARLAN  *      MOCLDY    19  12  73 SE13      30.25F WCI   7
LAMONI         PTCLDY    21  14  74 SE6       30.32F WCI  13
RED OAK *      CLEAR     23  16  74 SE10      30.25F WCI  12
SHENANDOAH *   CLEAR     25  16  68 SE15      30.26F WCI  12
$$

IAZ047>049-059>061-072>074-084-280400-
   CENTRAL IOWA

CITY           SKY/WX    TMP DP  RH WIND       PRES   REMARKS
AMES           CLOUDY    10   0  63 SE8       30.34F WCI  -2
ANKENY *       CLOUDY    12   3  67 SE8       30.35F WCI   1
CHARITON *     CLOUDY    18   9  68 SE8       30.34F WCI   7
DES MOINES     CLOUDY    14   4  64 SE8       30.34F WCI   3
GRINNELL*      CLOUDY     9   3  78 SE7       30.37F WCI  -3
KNOXVILLE *    CLOUDY    14   3  62 E7        30.35F WCI   4
MARSHALLTOWN   CLOUDY     9   2  73 S7        30.35F WCI  -2
PELLA *        PTCLDY    12   5  73 SE6       30.39F WCI   3
PERRY *          N/A     14   5  67 SE9       30.31F WCI   2
$$

IAZ004>006-015-016-023>025-035-036-280400-
   NORTH CENTRAL IOWA

CITY           SKY/WX    TMP DP  RH WIND       PRES   REMARKS
ALGONA *       CLOUDY     7  -2  66 SE13      30.27F WCI  -9
CLARION *      FLURRIES   9   1  72 SE14      30.31F WCI  -8
ESTHERVILLE    CLOUDY     5  -2  72 S17       30.25F WCI -14
FORT DODGE *   CLOUDY     9   0  66 SE6       30.30F WCI  -1
MASON CITY     CLOUDY     7   0  73 S13       30.32F WCI  -9
FOREST CITY *  CLOUDY    10   3  72 SE12      30.28F WCI  -4
IOWA FALLS *   CLOUDY     9   3  78 SE9       30.33F WCI  -5
$$

IAZ007>011-017>019-026>030-037>042-050>054-066-280400-
   NORTHEAST IOWA

CITY           SKY/WX    TMP DP  RH WIND       PRES   REMARKS
CEDAR RAPIDS   MOCLDY     9   4  80 SW5       30.38F WCI   1
CHARLES CITY * CLOUDY     7   0  72 SE8       30.33F WCI  -6
CLINTON *      CLOUDY     5   0  78 CALM      30.43F
DECORAH *      CLOUDY     7   0  72 CALM      30.32F
DUBUQUE        PTCLDY     8   3  80 CALM      30.37F
MONTICELLO *   CLOUDY    10   3  72 NE3       30.38F
OELWEIN *      CLOUDY     9   1  72 CALM      30.35F
WATERLOO       CLOUDY     9   3  77 S7        30.36F WCI  -2
$$

IAZ064-065-067-068-078-280400-
   EAST CENTRAL IOWA

CITY           SKY/WX    TMP DP  RH WIND       PRES   REMARKS
DAVENPORT      PTCLDY     8   2  76 CALM      30.40F
IOWA CITY      PTCLDY    12   4  70 SW6       30.43S WCI   3
MT. PLEASANT * MOCLDY     9   3  78 CALM      30.43S
MUSCATINE *    CLEAR     10   5  79 S5        30.43F WCI   2
QUAD CITIES    PTCLDY    13   6  74 CALM      30.41F
$$

IAZ062-063-075>077-085>089-095>099-280400-
   SOUTHEAST IOWA

CITY           SKY/WX    TMP DP  RH WIND       PRES   REMARKS
BURLINGTON     PTCLDY    10   4  76 CALM      30.43R
FAIRFIELD *    CLOUDY    10   1  67 CALM      30.41F
FORT MADISON * PTCLDY    12   7  79 CALM      30.43S
KEOKUK *       MOCLDY    16   9  73 CALM      30.42S
OSKALOOSA *    MOCLDY    10   3  72 E7        30.39F WCI   0
CENTERVILLE *    N/A     18  10  73 SE6       30.37F WCI   9
OTTUMWA        CLOUDY    12   2  64 E7        30.38F WCI   1
WASHINGTON *   MOCLDY     9   5  85 CALM      30.42S
$$

ABBREVIATIONS USED IN REMARKS
   TC - TEMPERATURES IN CELSIUS
  WCI - WIND CHILL INDEX
   HX - HEAT INDEX
  VSB - VISIBILITY
$$



USA.gov is the U.S. government's official web portal to all federal, state and local government web resources and services.